^^
Datos históricos de la estación: Murcia-Puente Tocinos
Diario Informe para Abril 30, 2019 Unidades:  Métrico    Inglés   Ambas
Diario Semanal Mensual Anual Configurable
  Máximo: Mínimo: Media:
Temperatura: 23.1 °C 13.9 °C 17.4 °C
Punto de rocio: 13.8 °C 11.4 °C 12.4 °C
Humedad: 90% 52% 74%
Velocidad viento: 19.3km/h 0.0km/h 7.3km/h
Racha viento: 32.2km/h - -
Viento- - ESE
Presión: 1017.3 hPa 1013.6 hPa -
Precipitación: 0.0 mm    
Historical Graphs
 
 
Tabla de datos para Abril 30, 2019
Hora Temperatura Punto de rocio Presión Viento Velocidad viento Racha viento Humedad Intensidad lluvia(por hora) Nubes
00:00 15.3 °C 12.6 °C 1017.0 hPa NE 8.0 km/h 11.3 km/h 84% 0.0 mm CLR
00:05 15.2 °C 12.7 °C 1017.0 hPa ENE 6.4 km/h 7.4 km/h 85% 0.0 mm CLR
00:09 15.3 °C 12.8 °C 1017.0 hPa ENE 5.8 km/h 7.4 km/h 85% 0.0 mm CLR
00:15 15.3 °C 12.8 °C 1017.0 hPa ENE 5.8 km/h 7.4 km/h 85% 0.0 mm CLR
00:19 15.3 °C 12.8 °C 1017.2 hPa East 3.9 km/h 5.6 km/h 85% 0.0 mm CLR
00:25 15.3 °C 12.6 °C 1017.2 hPa East 3.9 km/h 3.7 km/h 84% 0.0 mm CLR
00:29 15.2 °C 12.5 °C 1017.2 hPa ENE 2.3 km/h 7.4 km/h 84% 0.0 mm CLR
00:35 15.2 °C 12.4 °C 1017.1 hPa East 1.6 km/h 8.0 km/h 84% 0.0 mm CLR
00:39 15.0 °C 12.5 °C 1017.1 hPa NNE 4.7 km/h 7.4 km/h 85% 0.0 mm CLR
00:45 14.9 °C 12.4 °C 1017.1 hPa NE 4.7 km/h 7.4 km/h 85% 0.0 mm CLR
00:49 14.8 °C 12.5 °C 1017.2 hPa NE 5.8 km/h 7.4 km/h 86% 0.0 mm CLR
00:55 14.7 °C 12.4 °C 1017.2 hPa NE 4.8 km/h 9.7 km/h 86% 0.0 mm CLR
00:59 14.7 °C 12.6 °C 1017.2 hPa NE 4.7 km/h 7.4 km/h 87% 0.0 mm CLR
01:05 14.6 °C 12.4 °C 1017.3 hPa NE 4.7 km/h 3.9 km/h 87% 0.0 mm CLR
01:09 14.6 °C 12.4 °C 1017.3 hPa NE 2.3 km/h 3.9 km/h 87% 0.0 mm CLR
01:15 14.6 °C 12.4 °C 1017.3 hPa NE 2.3 km/h 7.4 km/h 87% 0.0 mm CLR
01:19 14.5 °C 12.3 °C 1017.1 hPa NNE 3.2 km/h 1.9 km/h 87% 0.0 mm CLR
01:25 14.4 °C 12.4 °C 1017.1 hPa NE 3.2 km/h 5.6 km/h 88% 0.0 mm CLR
01:29 14.4 °C 12.4 °C 1017.1 hPa NE 3.2 km/h 7.4 km/h 88% 0.0 mm CLR
01:35 14.4 °C 12.4 °C 1017.1 hPa NE 3.2 km/h 9.3 km/h 88% 0.0 mm CLR
01:39 14.3 °C 12.3 °C 1017.1 hPa NE 5.8 km/h 5.8 km/h 88% 0.0 mm CLR
01:45 14.3 °C 12.3 °C 1017.1 hPa NE 4.8 km/h 8.0 km/h 88% 0.0 mm CLR
01:49 14.4 °C 12.4 °C 1017.2 hPa East 3.2 km/h 5.6 km/h 88% 0.0 mm CLR
01:55 14.4 °C 12.4 °C 1017.2 hPa East 3.2 km/h 4.7 km/h 88% 0.0 mm CLR
02:00 14.4 °C 12.4 °C 1017.2 hPa East 3.2 km/h 8.0 km/h 88% 0.0 mm CLR
02:05 14.5 °C 12.6 °C 1017.1 hPa East 2.9 km/h 1.9 km/h 88% 0.0 mm CLR
02:09 14.5 °C 12.3 °C 1017.1 hPa East 2.3 km/h 5.6 km/h 87% 0.0 mm CLR
02:15 14.4 °C 12.4 °C 1017.1 hPa East 1.6 km/h 4.8 km/h 88% 0.0 mm CLR
02:19 14.4 °C 12.4 °C 1017.1 hPa Calm     88% 0.0 mm CLR
02:25 14.4 °C 12.4 °C 1017.1 hPa Calm     88% 0.0 mm CLR
02:29 14.3 °C 12.3 °C 1017.1 hPa Calm   3.2 km/h 88% 0.0 mm CLR
02:35 14.3 °C 12.3 °C 1016.9 hPa Calm   8.0 km/h 88% 0.0 mm CLR
02:39 14.2 °C 12.2 °C 1016.9 hPa ENE 2.9 km/h 5.6 km/h 88% 0.0 mm CLR
02:45 14.2 °C 12.4 °C 1016.9 hPa ENE 3.2 km/h 4.8 km/h 89% 0.0 mm CLR
02:49 14.2 °C 12.4 °C 1016.7 hPa ENE 2.3 km/h 5.6 km/h 89% 0.0 mm CLR
02:55 14.2 °C 12.4 °C 1016.7 hPa ENE 1.6 km/h 4.8 km/h 89% 0.0 mm CLR
03:00 14.1 °C 12.3 °C 1016.7 hPa ENE 1.6 km/h   89% 0.0 mm CLR
03:05 14.1 °C 12.3 °C 1016.6 hPa ENE 1.6 km/h   89% 0.0 mm CLR
03:09 14.1 °C 12.3 °C 1016.6 hPa Calm     89% 0.0 mm CLR
03:15 14.1 °C 12.3 °C 1016.6 hPa Calm     89% 0.0 mm CLR
03:19 14.1 °C 12.3 °C 1016.5 hPa Calm     89% 0.0 mm CLR
03:25 14.1 °C 12.3 °C 1016.5 hPa Calm     89% 0.0 mm CLR
03:29 14.1 °C 12.3 °C 1016.5 hPa Calm     89% 0.0 mm CLR
03:35 14.1 °C 12.3 °C 1016.3 hPa Calm     89% 0.0 mm CLR
03:40 14.1 °C 12.5 °C 1016.3 hPa Calm     90% 0.0 mm CLR
03:44 14.2 °C 12.6 °C 1016.3 hPa Calm     90% 0.0 mm CLR
03:49 14.2 °C 12.6 °C 1016.3 hPa Calm     90% 0.0 mm CLR
03:55 14.2 °C 12.4 °C 1016.3 hPa Calm     89% 0.0 mm CLR
04:00 14.2 °C 12.4 °C 1016.3 hPa Calm   3.2 km/h 89% 0.0 mm CLR
04:05 14.1 °C 12.2 °C 1016.1 hPa Calm   8.0 km/h 88% 0.0 mm CLR
04:09 14.1 °C 12.2 °C 1016.1 hPa East 3.2 km/h   88% 0.0 mm CLR
04:15 14.0 °C 12.1 °C 1016.1 hPa East 3.2 km/h 1.6 km/h 88% 0.0 mm CLR
04:19 14.1 °C 12.2 °C 1016.2 hPa Calm     88% 0.0 mm CLR
04:25 14.0 °C 11.9 °C 1016.2 hPa Calm     87% 0.0 mm CLR
04:29 14.0 °C 11.9 °C 1016.2 hPa Calm     87% 0.0 mm CLR
04:35 13.9 °C 11.8 °C 1016.0 hPa Calm     87% 0.0 mm CLR
04:39 13.9 °C 11.8 °C 1016.0 hPa Calm     87% 0.0 mm CLR
04:45 13.9 °C 11.8 °C 1016.0 hPa Calm     87% 0.0 mm CLR
04:50 13.9 °C 11.8 °C 1016.0 hPa Calm     87% 0.0 mm CLR
04:55 13.9 °C 11.8 °C 1016.0 hPa Calm     87% 0.0 mm CLR
05:00 14.1 °C 11.9 °C 1016.0 hPa Calm   6.4 km/h 87% 0.0 mm CLR
05:05 14.1 °C 11.9 °C 1015.8 hPa Calm   5.6 km/h 87% 0.0 mm CLR
05:09 14.1 °C 11.8 °C 1015.8 hPa SSW 3.9 km/h 5.6 km/h 86% 0.0 mm CLR
05:15 14.1 °C 11.8 °C 1015.8 hPa SSW 3.2 km/h 8.0 km/h 86% 0.0 mm CLR
05:19 14.1 °C 11.6 °C 1015.8 hPa South 3.9 km/h 7.4 km/h 85% 0.0 mm CLR
05:25 14.1 °C 11.6 °C 1015.8 hPa South 3.9 km/h 5.0 km/h 85% 0.0 mm CLR
05:29 14.2 °C 11.7 °C 1015.8 hPa SSW 3.9 km/h 7.4 km/h 85% 0.0 mm CLR
05:35 14.2 °C 11.7 °C 1015.8 hPa SSW 3.2 km/h 8.0 km/h 85% 0.0 mm CLR
05:39 14.2 °C 11.7 °C 1015.8 hPa SSE 4.7 km/h 8.4 km/h 85% 0.0 mm CLR
05:45 14.2 °C 11.9 °C 1015.8 hPa SSE 3.2 km/h 9.7 km/h 86% 0.0 mm CLR
05:49 14.2 °C 11.7 °C 1015.6 hPa ESE 5.8 km/h 7.4 km/h 85% 0.0 mm CLR
05:55 14.1 °C 11.6 °C 1015.6 hPa SE 4.8 km/h 11.3 km/h 85% 0.0 mm CLR
05:59 14.0 °C 11.5 °C 1015.6 hPa SSE 6.4 km/h 9.5 km/h 85% 0.0 mm CLR
06:05 14.0 °C 11.7 °C 1015.7 hPa South 8.0 km/h 11.3 km/h 86% 0.0 mm CLR
06:09 14.0 °C 11.7 °C 1015.7 hPa South 6.9 km/h 9.3 km/h 86% 0.0 mm CLR
06:15 13.9 °C 11.6 °C 1015.7 hPa South 8.0 km/h 9.7 km/h 86% 0.0 mm CLR
06:19 13.9 °C 11.6 °C 1015.5 hPa SSW 6.9 km/h 9.3 km/h 86% 0.0 mm CLR
06:24 14.0 °C 11.7 °C 1015.5 hPa SW 6.9 km/h 7.4 km/h 86% 0.0 mm CLR
06:29 14.0 °C 11.7 °C 1015.5 hPa WSW 5.0 km/h 9.3 km/h 86% 0.0 mm CLR
06:35 14.0 °C 11.7 °C 1015.6 hPa SW 4.8 km/h 11.3 km/h 86% 0.0 mm CLR
06:39 14.0 °C 11.5 °C 1015.6 hPa SW 6.4 km/h 7.4 km/h 85% 0.0 mm CLR
06:45 14.0 °C 11.5 °C 1015.6 hPa SW 8.0 km/h 9.7 km/h 85% 0.0 mm CLR
06:49 14.0 °C 11.5 °C 1015.6 hPa South 5.8 km/h 9.3 km/h 85% 0.0 mm CLR
06:55 14.0 °C 11.5 °C 1015.6 hPa SSW 4.8 km/h 9.7 km/h 85% 0.0 mm CLR
07:00 13.9 °C 11.4 °C 1015.6 hPa SW 3.2 km/h 9.7 km/h 85% 0.0 mm CLR
07:05 13.9 °C 11.4 °C 1015.7 hPa WSW 4.7 km/h 7.4 km/h 85% 0.0 mm CLR
07:09 14.0 °C 11.5 °C 1015.7 hPa WSW 4.7 km/h 7.4 km/h 85% 0.0 mm CLR
07:15 14.0 °C 11.6 °C 1015.7 hPa SW 3.2 km/h 8.0 km/h 85% 0.0 mm CLR
07:20 14.1 °C 11.6 °C 1015.8 hPa SW 3.2 km/h 8.0 km/h 85% 0.0 mm CLR
07:25 14.1 °C 11.6 °C 1015.8 hPa WSW 3.9 km/h 7.4 km/h 85% 0.0 mm CLR
07:29 14.1 °C 11.6 °C 1015.8 hPa WSW 3.9 km/h 7.4 km/h 85% 0.0 mm CLR
07:35 14.1 °C 11.6 °C 1015.8 hPa SW 3.2 km/h 8.0 km/h 85% 0.0 mm CLR
07:39 14.1 °C 11.6 °C 1015.8 hPa SSW 3.9 km/h 7.4 km/h 85% 0.0 mm CLR
07:45 14.1 °C 11.7 °C 1015.8 hPa SSW 3.2 km/h 8.0 km/h 85% 0.0 mm CLR
07:49 14.1 °C 11.8 °C 1015.9 hPa South 5.8 km/h 7.4 km/h 86% 0.0 mm CLR
07:55 14.1 °C 11.8 °C 1015.9 hPa SSE 4.8 km/h 8.0 km/h 86% 0.0 mm CLR
08:00 14.1 °C 11.9 °C 1015.9 hPa South 4.8 km/h 8.0 km/h 87% 0.0 mm CLR
08:05 14.2 °C 12.1 °C 1016.0 hPa SSW 5.0 km/h 7.4 km/h 87% 0.0 mm CLR
08:09 14.2 °C 12.1 °C 1016.0 hPa SSE 3.9 km/h 7.4 km/h 87% 0.0 mm CLR
08:15 14.3 °C 12.2 °C 1016.0 hPa South 3.2 km/h 9.7 km/h 87% 0.0 mm CLR
08:20 14.4 °C 12.1 °C 1016.0 hPa SW 5.0 km/h 7.6 km/h 86% 0.0 mm CLR
08:25 14.5 °C 12.2 °C 1016.0 hPa SSW 5.0 km/h 9.3 km/h 86% 0.0 mm CLR
08:29 14.5 °C 12.2 °C 1016.0 hPa South 6.4 km/h 7.4 km/h 86% 0.0 mm CLR
08:35 14.6 °C 12.3 °C 1016.0 hPa SSW 8.0 km/h 8.0 km/h 86% 0.0 mm CLR
08:39 14.7 °C 12.4 °C 1016.0 hPa WSW 4.7 km/h 7.4 km/h 86% 0.0 mm CLR
08:45 14.8 °C 12.3 °C 1016.0 hPa West 4.7 km/h 7.4 km/h 85% 0.0 mm CLR
08:49 14.9 °C 12.6 °C 1016.1 hPa West 5.0 km/h 7.6 km/h 86% 0.0 mm CLR
08:54 14.9 °C 12.4 °C 1016.1 hPa SW 5.0 km/h 9.3 km/h 85% 0.0 mm CLR
09:00 15.1 °C 12.6 °C 1016.1 hPa WSW 4.8 km/h 9.7 km/h 85% 0.0 mm CLR
09:05 15.2 °C 12.5 °C 1016.2 hPa WSW 5.0 km/h 9.3 km/h 84% 0.0 mm CLR
09:09 15.2 °C 12.5 °C 1016.2 hPa NW 5.8 km/h 7.4 km/h 84% 0.0 mm CLR
09:15 15.3 °C 12.6 °C 1016.2 hPa West 4.8 km/h 9.7 km/h 84% 0.0 mm CLR
09:19 15.4 °C 12.7 °C 1016.2 hPa WNW 5.0 km/h 9.3 km/h 84% 0.0 mm CLR
09:25 15.5 °C 12.6 °C 1016.2 hPa West 4.8 km/h 11.3 km/h 83% 0.0 mm CLR
09:29 15.6 °C 12.6 °C 1016.2 hPa West 5.0 km/h 7.4 km/h 82% 0.0 mm CLR
09:35 15.7 °C 12.8 °C 1016.2 hPa West 5.0 km/h   83% 0.0 mm CLR
09:40 15.9 °C 12.7 °C 1016.2 hPa South 2.3 km/h 7.4 km/h 81% 0.0 mm CLR
09:45 16.0 °C 12.6 °C 1016.2 hPa SW 1.6 km/h 8.0 km/h 80% 0.0 mm CLR
09:49 15.9 °C 12.4 °C 1016.2 hPa WSW 4.7 km/h 9.3 km/h 80% 0.0 mm CLR
09:55 15.9 °C 12.4 °C 1016.2 hPa WSW 3.2 km/h 9.7 km/h 80% 0.0 mm CLR
10:00 16.1 °C 12.7 °C 1016.2 hPa SW 4.8 km/h 8.0 km/h 80% 0.0 mm CLR
10:05 16.4 °C 12.6 °C 1016.2 hPa ESE 4.8 km/h 6.4 km/h 78% 0.0 mm CLR
10:09 16.9 °C 12.7 °C 1016.2 hPa SW 2.9 km/h 11.1 km/h 76% 0.0 mm CLR
10:15 16.9 °C 12.4 °C 1016.2 hPa SSW 3.2 km/h 11.3 km/h 75% 0.0 mm CLR
10:19 16.8 °C 12.3 °C 1016.1 hPa WSW 5.0 km/h 7.4 km/h 75% 0.0 mm CLR
10:25 16.8 °C 12.1 °C 1016.1 hPa SW 5.0 km/h 7.4 km/h 74% 0.0 mm CLR
10:30 16.7 °C 12.1 °C 1016.1 hPa NW 3.9 km/h 5.6 km/h 74% 0.0 mm CLR
10:35 16.8 °C 12.1 °C 1016.2 hPa WSW 3.2 km/h 8.0 km/h 74% 0.0 mm CLR
10:40 16.9 °C 12.2 °C 1016.2 hPa ENE 2.9 km/h 7.4 km/h 74% 0.0 mm CLR
10:45 17.2 °C 12.3 °C 1016.2 hPa NNW 2.9 km/h 9.3 km/h 73% 0.0 mm CLR
10:49 17.4 °C 12.3 °C 1016.0 hPa NNW 3.9 km/h 7.4 km/h 72% 0.0 mm CLR
10:55 17.8 °C 12.3 °C 1016.0 hPa ENE 3.9 km/h 7.4 km/h 70% 0.0 mm CLR
11:00 18.1 °C 12.1 °C 1016.0 hPa East 3.2 km/h 9.7 km/h 68% 0.0 mm CLR
11:05 18.1 °C 11.9 °C 1015.9 hPa SSE 3.2 km/h 11.3 km/h 67% 0.0 mm CLR
11:09 17.9 °C 11.7 °C 1015.9 hPa ENE 5.8 km/h 9.3 km/h 67% 0.0 mm CLR
11:15 18.0 °C 11.8 °C 1015.9 hPa NW 5.8 km/h 7.4 km/h 67% 0.0 mm CLR
11:19 18.3 °C 11.8 °C 1015.8 hPa SW 4.7 km/h 9.3 km/h 66% 0.0 mm CLR
11:25 18.4 °C 11.9 °C 1015.8 hPa SE 4.7 km/h 9.3 km/h 66% 0.0 mm CLR
11:30 18.6 °C 12.1 °C 1015.8 hPa SE 5.0 km/h   66% 0.0 mm CLR
11:35 19.0 °C 12.1 °C 1015.8 hPa NW 5.0 km/h   64% 0.0 mm CLR
11:40 19.4 °C 11.9 °C 1015.8 hPa NW 2.3 km/h 11.1 km/h 62% 0.0 mm CLR
11:45 19.3 °C 11.8 °C 1015.8 hPa WNW 2.3 km/h 5.8 km/h 62% 0.0 mm CLR
11:50 19.3 °C 11.8 °C 1015.7 hPa ENE 5.0 km/h 7.4 km/h 62% 0.0 mm CLR
11:55 19.2 °C 11.5 °C 1015.7 hPa ESE 5.0 km/h 5.6 km/h 61% 0.0 mm CLR
12:00 19.2 °C 11.7 °C 1015.7 hPa ENE 4.8 km/h 9.7 km/h 62% 0.0 mm CLR
12:05 19.5 °C 11.8 °C 1015.6 hPa NNE 5.8 km/h 7.4 km/h 61% 0.0 mm CLR
12:10 19.8 °C 11.8 °C 1015.6 hPa East 3.9 km/h 11.1 km/h 60% 0.0 mm CLR
12:15 19.8 °C 11.8 °C 1015.6 hPa ENE 3.2 km/h 11.3 km/h 60% 0.0 mm CLR
12:20 19.8 °C 11.8 °C 1015.4 hPa NNE 4.8 km/h 9.7 km/h 60% 0.0 mm CLR
12:25 19.9 °C 11.7 °C 1015.4 hPa SW 5.0 km/h 7.4 km/h 59% 0.0 mm CLR
12:29 20.1 °C 11.8 °C 1015.4 hPa NE 3.9 km/h 11.1 km/h 59% 0.0 mm CLR
12:35 20.1 °C 12.1 °C 1015.3 hPa NE 3.2 km/h 11.3 km/h 60% 0.0 mm CLR
12:39 20.3 °C 12.0 °C 1015.3 hPa NNW 5.8 km/h 9.3 km/h 59% 0.0 mm CLR
12:45 20.6 °C 12.3 °C 1015.3 hPa North 4.8 km/h 9.7 km/h 59% 0.0 mm CLR
12:50 20.8 °C 11.9 °C 1015.2 hPa NW 5.8 km/h 13.0 km/h 57% 0.0 mm CLR
12:55 20.7 °C 12.2 °C 1015.2 hPa North 4.8 km/h 12.9 km/h 58% 0.0 mm CLR
13:00 20.6 °C 12.1 °C 1015.2 hPa NNE 8.0 km/h 14.5 km/h 58% 0.0 mm CLR
13:05 20.8 °C 11.9 °C 1015.1 hPa NNE 8.0 km/h 11.3 km/h 57% 0.0 mm CLR
13:10 20.8 °C 12.0 °C 1015.1 hPa NNE 8.0 km/h 11.3 km/h 57% 0.0 mm CLR
13:15 21.2 °C 12.3 °C 1015.1 hPa North 6.4 km/h 11.1 km/h 57% 0.0 mm CLR
13:19 21.4 °C 12.3 °C 1014.9 hPa ENE 5.8 km/h 13.0 km/h 56% 0.0 mm CLR
13:25 21.4 °C 12.3 °C 1014.9 hPa NE 4.8 km/h 20.9 km/h 56% 0.0 mm CLR
13:30 21.4 °C 12.5 °C 1014.9 hPa NNE 8.4 km/h 11.9 km/h 57% 0.0 mm CLR
13:35 21.6 °C 12.2 °C 1014.7 hPa NE 8.0 km/h 19.3 km/h 55% 0.0 mm CLR
13:40 21.7 °C 12.3 °C 1014.7 hPa NNE 7.6 km/h 14.8 km/h 55% 0.0 mm CLR
13:45 21.9 °C 12.4 °C 1014.7 hPa NNE 7.6 km/h 7.6 km/h 55% 0.0 mm CLR
13:49 22.0 °C 12.3 °C 1014.5 hPa NNW 6.9 km/h 11.1 km/h 54% 0.0 mm CLR
13:55 22.1 °C 12.3 °C 1014.5 hPa NE 8.0 km/h 14.5 km/h 54% 0.0 mm CLR
14:00 22.3 °C 12.5 °C 1014.5 hPa NNE 4.8 km/h 19.3 km/h 54% 0.0 mm CLR
14:05 22.2 °C 12.4 °C 1014.2 hPa North 4.8 km/h 19.3 km/h 54% 0.0 mm CLR
14:10 22.3 °C 12.3 °C 1014.2 hPa NNE 9.7 km/h 16.1 km/h 53% 0.0 mm CLR
14:15 22.3 °C 12.3 °C 1014.2 hPa NE 9.7 km/h 16.1 km/h 53% 0.0 mm CLR
14:20 22.6 °C 12.6 °C 1014.1 hPa NE 8.0 km/h 22.5 km/h 53% 0.0 mm CLR
14:25 23.1 °C 12.7 °C 1014.1 hPa NNW 7.6 km/h 13.0 km/h 52% 0.0 mm CLR
14:30 22.9 °C 12.8 °C 1014.1 hPa NE 11.3 km/h 24.1 km/h 53% 0.0 mm CLR
14:35 22.6 °C 13.7 °C 1014.1 hPa NE 11.1 km/h 22.2 km/h 57% 0.0 mm CLR
14:40 22.3 °C 13.4 °C 1014.1 hPa NE 16.1 km/h 29.0 km/h 57% 0.0 mm CLR
14:45 22.4 °C 13.7 °C 1014.1 hPa ENE 17.2 km/h 22.2 km/h 58% 0.0 mm CLR
14:49 22.2 °C 13.6 °C 1014.1 hPa NE 17.2 km/h 25.9 km/h 58% 0.0 mm CLR
14:55 22.2 °C 13.6 °C 1014.1 hPa NE 17.2 km/h 22.2 km/h 58% 0.0 mm CLR
15:00 22.3 °C 13.6 °C 1014.1 hPa NE 16.1 km/h 32.2 km/h 58% 0.0 mm CLR
15:05 22.0 °C 13.6 °C 1014.1 hPa NNE 16.1 km/h 27.8 km/h 59% 0.0 mm CLR
15:10 22.2 °C 13.8 °C 1014.1 hPa NNE 16.4 km/h 29.6 km/h 59% 0.0 mm CLR
15:15 22.3 °C 13.6 °C 1014.1 hPa East 16.4 km/h 24.1 km/h 58% 0.0 mm CLR
15:20 22.6 °C 13.7 °C 1014.1 hPa ENE 14.8 km/h 13.0 km/h 57% 0.0 mm CLR
15:25 22.7 °C 13.7 °C 1014.1 hPa ESE 14.8 km/h 13.0 km/h 57% 0.0 mm CLR
15:30 22.6 °C 13.4 °C 1014.1 hPa ESE 13.0 km/h 27.8 km/h 56% 0.0 mm CLR
15:35 22.5 °C 13.6 °C 1014.0 hPa ESE 12.9 km/h 27.4 km/h 57% 0.0 mm CLR
15:40 22.7 °C 13.4 °C 1014.0 hPa ESE 12.9 km/h 24.1 km/h 56% 0.0 mm CLR
15:45 22.6 °C 13.4 °C 1014.0 hPa ESE 13.0 km/h 16.7 km/h 56% 0.0 mm CLR
15:50 22.6 °C 13.7 °C 1014.0 hPa East 12.9 km/h 27.4 km/h 57% 0.0 mm CLR
15:55 22.5 °C 13.3 °C 1014.0 hPa NE 12.2 km/h 25.9 km/h 56% 0.0 mm CLR
16:00 22.3 °C 13.3 °C 1014.0 hPa East 14.5 km/h 29.0 km/h 57% 0.0 mm CLR
16:05 22.2 °C 13.0 °C 1014.0 hPa ENE 14.8 km/h 24.5 km/h 56% 0.0 mm CLR
16:10 22.2 °C 13.3 °C 1014.0 hPa ENE 12.9 km/h 24.1 km/h 57% 0.0 mm CLR
16:15 22.0 °C 13.1 °C 1014.0 hPa NNE 13.7 km/h 22.2 km/h 57% 0.0 mm CLR
16:20 22.2 °C 13.3 °C 1013.9 hPa East 14.0 km/h 20.4 km/h 57% 0.0 mm CLR
16:25 22.3 °C 12.8 °C 1013.9 hPa East 14.0 km/h 24.1 km/h 55% 0.0 mm CLR
16:29 22.4 °C 13.2 °C 1013.9 hPa ENE 12.2 km/h 20.4 km/h 56% 0.0 mm CLR
16:35 22.6 °C 13.1 °C 1013.8 hPa NNE 12.2 km/h 18.5 km/h 55% 0.0 mm CLR
16:40 22.2 °C 12.7 °C 1013.8 hPa NE 11.9 km/h 24.1 km/h 55% 0.0 mm CLR
16:45 21.9 °C 12.4 °C 1013.8 hPa NE 11.9 km/h 29.6 km/h 55% 0.0 mm CLR
16:50 21.7 °C 12.3 °C 1013.8 hPa NE 16.4 km/h 24.1 km/h 55% 0.0 mm CLR
16:55 21.7 °C 12.6 °C 1013.8 hPa NE 16.1 km/h 25.7 km/h 56% 0.0 mm CLR
17:00 21.7 °C 12.6 °C 1013.8 hPa NE 16.1 km/h 32.2 km/h 56% 0.0 mm CLR
17:05 21.9 °C 12.7 °C 1013.7 hPa NE 16.1 km/h 24.1 km/h 56% 0.0 mm CLR
17:10 21.8 °C 12.6 °C 1013.7 hPa East 12.2 km/h 25.9 km/h 56% 0.0 mm CLR
17:15 22.1 °C 12.9 °C 1013.7 hPa ENE 12.9 km/h 25.7 km/h 56% 0.0 mm CLR
17:20 22.1 °C 12.9 °C 1013.7 hPa ENE 11.3 km/h 20.9 km/h 56% 0.0 mm CLR
17:25 21.9 °C 13.0 °C 1013.7 hPa ENE 11.3 km/h 27.4 km/h 57% 0.0 mm CLR
17:29 21.7 °C 12.8 °C 1013.7 hPa NE 13.7 km/h 30.6 km/h 57% 0.0 mm CLR
17:35 21.2 °C 12.9 °C 1013.6 hPa NNE 13.7 km/h 29.6 km/h 59% 0.0 mm CLR
17:39 21.2 °C 12.9 °C 1013.6 hPa ENE 18.3 km/h 22.2 km/h 59% 0.0 mm CLR
17:45 21.2 °C 13.2 °C 1013.6 hPa ENE 19.3 km/h 22.5 km/h 60% 0.0 mm CLR
17:50 21.0 °C 12.9 °C 1013.6 hPa NE 13.7 km/h 25.9 km/h 60% 0.0 mm CLR
17:55 20.9 °C 12.9 °C 1013.6 hPa NE 12.9 km/h 25.7 km/h 60% 0.0 mm CLR
18:00 20.7 °C 12.7 °C 1013.6 hPa NE 14.5 km/h 30.6 km/h 60% 0.0 mm CLR
18:05 20.6 °C 12.8 °C 1013.7 hPa ENE 14.5 km/h 29.0 km/h 61% 0.0 mm CLR
18:10 20.4 °C 12.9 °C 1013.7 hPa NNE 17.2 km/h 25.9 km/h 62% 0.0 mm CLR
18:15 20.4 °C 12.9 °C 1013.7 hPa ENE 17.2 km/h 24.5 km/h 62% 0.0 mm CLR
18:20 20.3 °C 12.8 °C 1013.7 hPa NE 14.5 km/h 24.1 km/h 62% 0.0 mm CLR
18:25 20.4 °C 13.1 °C 1013.7 hPa NNE 15.6 km/h 14.8 km/h 63% 0.0 mm CLR
18:30 20.4 °C 13.1 °C 1013.7 hPa ENE 11.1 km/h 20.4 km/h 63% 0.0 mm CLR
18:35 20.3 °C 13.1 °C 1013.8 hPa NE 11.3 km/h 27.4 km/h 63% 0.0 mm CLR
18:40 20.1 °C 13.1 °C 1013.8 hPa NE 14.5 km/h 29.0 km/h 64% 0.0 mm CLR
18:45 20.0 °C 13.0 °C 1013.8 hPa NE 14.5 km/h 25.7 km/h 64% 0.0 mm CLR
18:50 19.8 °C 13.1 °C 1013.8 hPa ENE 16.4 km/h 22.2 km/h 65% 0.0 mm CLR
18:55 19.8 °C 13.1 °C 1013.8 hPa NE 16.4 km/h 26.2 km/h 65% 0.0 mm CLR
19:00 19.6 °C 12.8 °C 1013.8 hPa NE 14.5 km/h 27.4 km/h 65% 0.0 mm CLR
19:05 19.7 °C 12.9 °C 1013.8 hPa ENE 15.6 km/h 22.5 km/h 65% 0.0 mm CLR
19:10 19.6 °C 12.8 °C 1013.8 hPa ENE 15.6 km/h 20.4 km/h 65% 0.0 mm CLR
19:15 19.6 °C 12.8 °C 1013.8 hPa NE 14.5 km/h 29.0 km/h 65% 0.0 mm CLR
19:20 19.6 °C 13.1 °C 1013.8 hPa ENE 14.0 km/h 20.4 km/h 66% 0.0 mm CLR
19:25 19.6 °C 13.1 °C 1013.8 hPa NNE 14.0 km/h 18.5 km/h 66% 0.0 mm CLR
19:30 19.4 °C 12.9 °C 1013.8 hPa NE 15.6 km/h 18.5 km/h 66% 0.0 mm CLR
19:35 19.4 °C 12.9 °C 1013.9 hPa NE 14.5 km/h 22.5 km/h 66% 0.0 mm CLR
19:40 19.4 °C 12.9 °C 1013.9 hPa NE 11.9 km/h 22.2 km/h 66% 0.0 mm CLR
19:45 19.3 °C 12.8 °C 1013.9 hPa NE 11.3 km/h 22.5 km/h 66% 0.0 mm CLR
19:50 19.3 °C 12.8 °C 1013.9 hPa North 14.8 km/h 20.4 km/h 66% 0.0 mm CLR
19:55 19.2 °C 12.7 °C 1013.9 hPa ENE 14.8 km/h 24.1 km/h 66% 0.0 mm CLR
20:00 19.1 °C 12.8 °C 1013.9 hPa NE 12.9 km/h 22.5 km/h 67% 0.0 mm CLR
20:05 19.1 °C 12.8 °C 1014.0 hPa NE 12.9 km/h 16.1 km/h 67% 0.0 mm CLR
20:10 19.2 °C 12.9 °C 1014.0 hPa NE 9.7 km/h 20.9 km/h 67% 0.0 mm CLR
20:15 19.1 °C 12.8 °C 1014.0 hPa NE 9.7 km/h 25.7 km/h 67% 0.0 mm CLR
20:20 18.8 °C 12.6 °C 1014.1 hPa NE 13.7 km/h 20.4 km/h 67% 0.0 mm CLR
20:25 18.7 °C 12.4 °C 1014.1 hPa NNE 13.7 km/h 14.8 km/h 67% 0.0 mm CLR
20:30 18.7 °C 12.2 °C 1014.1 hPa ENE 14.0 km/h 18.5 km/h 66% 0.0 mm CLR
20:35 18.6 °C 12.3 °C 1014.4 hPa NE 14.5 km/h 19.3 km/h 67% 0.0 mm CLR
20:40 18.5 °C 12.5 °C 1014.4 hPa NE 12.9 km/h 24.1 km/h 68% 0.0 mm CLR
20:45 18.3 °C 12.3 °C 1014.4 hPa NE 12.9 km/h 24.1 km/h 68% 0.0 mm CLR
20:50 18.2 °C 12.4 °C 1014.3 hPa ENE 13.7 km/h 18.5 km/h 69% 0.0 mm CLR
20:55 18.1 °C 12.3 °C 1014.3 hPa NE 12.9 km/h 20.9 km/h 69% 0.0 mm CLR
21:00 18.1 °C 12.3 °C 1014.3 hPa NE 12.9 km/h 20.9 km/h 69% 0.0 mm CLR
21:05 17.9 °C 12.3 °C 1014.5 hPa NE 12.9 km/h 22.5 km/h 70% 0.0 mm CLR
21:10 17.8 °C 12.4 °C 1014.5 hPa NNE 11.9 km/h 18.5 km/h 71% 0.0 mm CLR
21:15 17.7 °C 12.4 °C 1014.5 hPa NE 11.9 km/h 18.5 km/h 71% 0.0 mm CLR
21:20 17.6 °C 12.3 °C 1014.7 hPa NE 12.9 km/h 20.9 km/h 71% 0.0 mm CLR
21:25 17.4 °C 12.3 °C 1014.7 hPa NE 12.2 km/h 20.4 km/h 72% 0.0 mm CLR
21:30 17.3 °C 12.2 °C 1014.7 hPa NE 12.9 km/h 19.3 km/h 72% 0.0 mm CLR
21:35 17.3 °C 12.4 °C 1014.9 hPa NNE 13.7 km/h 13.0 km/h 73% 0.0 mm CLR
21:40 17.2 °C 12.3 °C 1014.9 hPa NE 10.0 km/h 13.0 km/h 73% 0.0 mm CLR
21:45 17.2 °C 12.5 °C 1014.9 hPa ENE 10.0 km/h 13.0 km/h 74% 0.0 mm CLR
21:50 17.2 °C 12.5 °C 1015.0 hPa NE 9.7 km/h 14.5 km/h 74% 0.0 mm CLR
21:55 17.1 °C 12.4 °C 1015.0 hPa NE 9.7 km/h 14.5 km/h 74% 0.0 mm CLR
22:00 17.1 °C 12.6 °C 1015.0 hPa NE 8.0 km/h 14.5 km/h 75% 0.0 mm CLR
22:05 16.9 °C 12.4 °C 1015.1 hPa NE 8.0 km/h 16.1 km/h 75% 0.0 mm CLR
22:10 16.9 °C 12.7 °C 1015.1 hPa NE 8.0 km/h 11.3 km/h 76% 0.0 mm CLR
22:15 16.9 °C 12.8 °C 1015.1 hPa NE 8.4 km/h 9.3 km/h 77% 0.0 mm CLR
22:20 16.8 °C 12.7 °C 1015.1 hPa NE 8.0 km/h 9.7 km/h 77% 0.0 mm CLR
22:25 16.7 °C 12.7 °C 1015.1 hPa NE 6.4 km/h 13.0 km/h 77% 0.0 mm CLR
22:30 16.6 °C 12.7 °C 1015.1 hPa NE 8.0 km/h 12.9 km/h 78% 0.0 mm CLR
22:35 16.5 °C 12.8 °C 1015.2 hPa NE 8.0 km/h 14.5 km/h 79% 0.0 mm CLR
22:40 16.4 °C 12.7 °C 1015.2 hPa ENE 8.4 km/h 11.1 km/h 79% 0.0 mm CLR
22:45 16.4 °C 12.7 °C 1015.2 hPa NE 8.0 km/h 12.9 km/h 79% 0.0 mm CLR
22:50 16.4 °C 12.7 °C 1015.2 hPa NE 8.0 km/h 11.3 km/h 79% 0.0 mm CLR
22:55 16.4 °C 12.7 °C 1015.2 hPa NE 8.0 km/h 9.7 km/h 79% 0.0 mm CLR
23:00 16.4 °C 12.9 °C 1015.2 hPa ENE 3.2 km/h 8.0 km/h 80% 0.0 mm CLR
23:05 16.4 °C 12.9 °C 1015.3 hPa ENE 3.2 km/h 9.7 km/h 80% 0.0 mm CLR
23:10 16.3 °C 12.8 °C 1015.3 hPa NE 4.8 km/h 9.7 km/h 80% 0.0 mm CLR
23:15 16.1 °C 12.8 °C 1015.3 hPa NE 5.0 km/h 8.4 km/h 81% 0.0 mm CLR
23:20 16.1 °C 12.8 °C 1015.3 hPa NE 8.0 km/h 11.3 km/h 81% 0.0 mm CLR
23:25 15.9 °C 12.8 °C 1015.3 hPa NNE 6.4 km/h 7.4 km/h 82% 0.0 mm CLR
23:30 15.9 °C 12.8 °C 1015.3 hPa NE 8.0 km/h 11.3 km/h 82% 0.0 mm CLR
23:35 15.8 °C 12.9 °C 1015.2 hPa NE 8.0 km/h 9.7 km/h 83% 0.0 mm CLR
23:40 15.8 °C 12.9 °C 1015.2 hPa NE 4.8 km/h 11.3 km/h 83% 0.0 mm CLR
23:45 15.6 °C 12.9 °C 1015.2 hPa North 5.8 km/h 10.0 km/h 84% 0.0 mm CLR
23:50 15.6 °C 12.9 °C 1015.2 hPa NE 7.6 km/h 11.1 km/h 84% 0.0 mm CLR
23:55 15.4 °C 12.7 °C 1015.2 hPa NE 7.6 km/h 13.0 km/h 84% 0.0 mm CLR
Murcia-Puente Tocinos, España
Compliments of Weather Underground - 3.25 mb

La estación de MeteoMurcia.com, publica sus datos en los siguientes proyectos:

Weather Underground PWS IMURCIAP2 Meteoclimatic www.awekas.at

W3Counter
Web Analytics